Regional Weather Roundup
Issued by NWS Newport/Morehead, NC

Current Version | Previous Version | Text Only | Print | Product List | Glossary On
Versions: 1 2 3 4 5 6 7 8 9 10 11 12 13 14 15 16 17 18 19 20 21 22 23 24 25 26 27 28 29 30 31 32 33 34 35 36 37 38 39 40 41 42 43 44 45 46 47 48 49 50
000
ASUS42 KMHX 091422
RWRMHX
WEATHER ROUNDUP FOR EASTERN NORTH CAROLINA
NATIONAL WEATHER SERVICE NEWPORT/MOREHEAD CITY NC
1000 AM EDT WED JUL 09 2014

NOTE: "FAIR" INDICATES FEW OR NO CLOUDS BELOW 12,000 FEET
WITH NO SIGNIFICANT WEATHER AND/OR OBSTRUCTIONS TO VISIBILITY

NCZ015>017-031-032-045>047-102-103-091500-
NORTH COAST

CITY           SKY/WX    TMP DP  RH WIND       PRES   REMARKS
EDENTON        SUNNY     84  73  71 SW10      29.99F
ELIZABETH CITY MOSUNNY   85  74  69 SW12      29.99S
KITTY HAWK     SUNNY     85  73  67 SW9       29.99S
MANTEO         SUNNY     84  74  71 W12       30.00F

$$

NCZ045>047-081-094-103-104-091500-
CENTRAL COAST

CITY           SKY/WX    TMP DP  RH WIND       PRES   REMARKS
FRISCO         MOSUNNY   83  77  82 SW12      30.04S
SWANQUARTER      N/A     86 N/A N/A SW13      29.97S

$$

NCZ095-097-098-100-101-091500-
SOUTHERN COAST

CITY           SKY/WX    TMP DP  RH WIND       PRES   REMARKS
BEAUFORT       MOSUNNY   85  78  80 SW17G24   30.04S
CEDAR ISLAND     N/A     88 N/A N/A SW10      30.06S
JACKSONVILLE   SUNNY     85  74  69 W9        30.02F
NEWPORT        NOT AVBL
PINEY ISLAND   SUNNY     87  78  74 SW12      30.02F HX 100
WILMINGTON     SUNNY     88  72  58 SW10      30.04S


$$

NCZ011>013-027>030-043-044-078>080-089-090>093-098-091500-
COASTAL PLAIN

CITY           SKY/WX    TMP DP  RH WIND       PRES   REMARKS
AHOSKIE        MOSUNNY   82  73  73 CALM      29.99F
CLINTON        SUNNY     85  76  73 SW6       30.02F
ELIZABETHTOWN  SUNNY     85  72  65 S8        30.03F
GOLDSBORO      SUNNY     85  76  75 S7        29.99F
GREENVILLE     MOSUNNY   86  73  66 W9        30.02S
HAVELOCK       SUNNY     85  74  69 SW13      30.03F
KENANSVILLE    SUNNY     84  73  68 SW3       30.03F
KINSTON        SUNNY     84  73  70 SW7       30.02F
NEW BERN       SUNNY     87  75  67 SW8       30.03F
RICHLANDS      SUNNY     88  73  62 SW7       30.03S
ROANOKE RAPIDS NOT AVBL
ROCKY MOUNT    PTSUNNY   86  72  62 SW9       30.00F
WASHINGTON     MOSUNNY   85  76  75 SW10      30.01F
WHITEVILLE     SUNNY     85  73  66 S6        30.03F

$$

AMZ130-135-150-152-154-156-158-170-250-252-270-ANZ085-086-088-633-658-670-091500-
MARINE OBSERVATIONS

STATION/POSITION TIME  TEMP    WIND        PRES    WAVE   SWELL
                       AIR SEA DIR/SP/G            HT/PER HT/PER
                 (UTC) (F)     (DEG/KT/KT) (MB)    (FT/S) (FT/S)
CHESAPEAKE LIGHT 1400   77     230/ 10/ 11 1015.4
BUOY 44014       1400   77 75  220/ 14/ 17 1015.0    4/ 8   2/ 8
DUCK             1400   81 61  230/ 13/ 17 1015.0
2E DUCK          1400                        N/A     2/ 8
OREGON INLET     1400   82 83  220/ 13/ 16 1016.0
BUOY 44095       1400      80                N/A     4/ 7
HATTERAS CG      1400   82 80  210/ 12/ 14 1017.6
DIAMOND BUOY     1400          270/ 17/ 23 1017.2    6/ 7   3/15
17S OCRACOKE INL NOT AVBL
CAPE LOOKOUT     1400   83     210/ 11/ 14 1017.3
BEAUFORT LAB     1400   83 81  220/  7/ 13 1016.8
30 SE NEW RIVER  1400   81 81  230/ 16/ 19 1017.8    5/ 6   2/ 8
5 SE WRIGHTSVILL 1400   79 81  220/  8/ 12 1017.8
FRYING PAN BUOY  NOT AVBL
BUOY 41001       NOT AVBL
BUOY 41002       1251   80 81  250/ 10/ 12 1021.6    4/ 8   3/ 8
BUOY 41004       1400   81 81  220/ 14/ 16 1018.0    4/ 6   3/ 6

$$


USA.gov is the U.S. government's official web portal to all federal, state and local government web resources and services.